Volver al catálogo

KUIPER-00079

ActivoComunicacionesLEO
NORAD 64826·PAYLOAD·🇺🇸 United States

Lanzado Jul 16, 2025 desde Cape Canaveral Space Force Station

Loading…

Próximos Pases (próximas 24 horas)

TLE

ActualizadoSource: CelesTrak SupGP

Época: Sep 14, 2026, 23:20 UTC

1 64826C 25151L   26257.97262732 -.00020201  00000+0 -26447-2 0  2578
2 64826  51.8982 183.5408 0001094  73.1074 254.8121 14.79944737    15

Sigue KUIPER-00079 en tiempo real con AllMySat

Download on the App Store